TimeMDT,TemperatureF,Dew PointF,Humidity,Sea Level PressureIn,VisibilityMPH,Wind Direction,Wind SpeedMPH,Gust SpeedMPH,PrecipitationIn,Events,Conditions,WindDirDegrees,DateUTC
12:53 AM,66.9,63.0,87,29.81,7.0,SE,17.3,-,0.00,,Clear,130,2013-05-25 06:53:00
1:53 AM,66.0,62.1,87,29.79,7.0,SE,15.0,-,N/A,,Clear,140,2013-05-25 07:53:00
2:53 AM,64.9,57.0,75,29.78,10.0,SSE,15.0,-,N/A,,Clear,160,2013-05-25 08:53:00
3:53 AM,64.0,53.1,67,29.81,10.0,SSE,12.7,-,N/A,,Clear,160,2013-05-25 09:53:00
4:53 AM,62.1,52.0,70,29.88,9.0,East,10.4,-,N/A,,Clear,90,2013-05-25 10:53:00
5:53 AM,62.1,59.0,90,29.90,6.0,ESE,13.8,20.7,N/A,,Clear,120,2013-05-25 11:53:00
6:22 AM,60.8,57.2,88,29.99,5.0,ESE,21.9,28.8,N/A,,Scattered Clouds,120,2013-05-25 12:22:00
6:33 AM,60.8,59.0,94,29.99,5.0,SE,21.9,29.9,N/A,,Mostly Cloudy,130,2013-05-25 12:33:00
6:53 AM,61.0,59.0,93,29.91,5.0,ESE,23.0,29.9,N/A,,Overcast,120,2013-05-25 12:53:00
7:06 AM,60.8,59.0,94,29.98,4.0,ESE,26.5,-,N/A,,Overcast,120,2013-05-25 13:06:00
7:35 AM,62.6,59.0,88,29.99,6.0,ESE,23.0,31.1,N/A,,Overcast,120,2013-05-25 13:35:00
7:53 AM,62.1,59.0,90,29.91,6.0,SE,20.7,29.9,N/A,,Overcast,130,2013-05-25 13:53:00
8:53 AM,64.9,59.0,81,29.91,9.0,SE,20.7,-,N/A,,Mostly Cloudy,140,2013-05-25 14:53:00
9:08 AM,66.2,59.0,78,29.97,10.0,SE,21.9,-,N/A,,Scattered Clouds,130,2013-05-25 15:08:00
9:53 AM,72.0,60.1,66,29.88,10.0,SE,17.3,-,N/A,,Clear,140,2013-05-25 15:53:00
10:53 AM,77.0,54.0,45,29.86,10.0,SSE,13.8,-,N/A,,Clear,150,2013-05-25 16:53:00
11:53 AM,81.0,55.0,41,29.84,10.0,South,9.2,17.3,N/A,,Clear,190,2013-05-25 17:53:00
12:53 PM,84.0,55.0,37,29.81,10.0,South,11.5,-,N/A,,Clear,170,2013-05-25 18:53:00
1:53 PM,87.1,55.0,33,29.79,10.0,SSE,10.4,-,N/A,,Clear,150,2013-05-25 19:53:00
2:53 PM,88.0,51.1,28,29.77,10.0,South,6.9,-,N/A,,Clear,180,2013-05-25 20:53:00
3:53 PM,91.0,48.0,23,29.75,10.0,SE,11.5,-,N/A,,Clear,130,2013-05-25 21:53:00
4:53 PM,89.1,52.0,28,29.71,10.0,SE,9.2,17.3,N/A,,Clear,130,2013-05-25 22:53:00
5:53 PM,84.0,52.0,33,29.74,10.0,SSE,27.6,38.0,N/A,,Clear,150,2013-05-25 23:53:00
6:53 PM,77.0,51.1,40,29.76,10.0,SSE,12.7,-,N/A,,Clear,150,2013-05-26 00:53:00
7:53 PM,75.9,53.1,45,29.77,10.0,SE,10.4,-,N/A,,Clear,130,2013-05-26 01:53:00
8:08 PM,75.2,53.6,47,29.84,10.0,SE,12.7,18.4,N/A,Thunderstorm,Clear,140,2013-05-26 02:08:00
8:43 PM,73.4,51.8,47,29.84,10.0,SE,17.3,28.8,N/A,,Clear,140,2013-05-26 02:43:00
8:53 PM,73.0,53.1,49,29.76,10.0,SE,15.0,-,N/A,,Clear,130,2013-05-26 02:53:00
9:53 PM,72.0,46.0,40,29.78,10.0,SE,19.6,26.5,N/A,,Clear,140,2013-05-26 03:53:00
10:53 PM,69.1,46.9,45,29.78,10.0,ESE,15.0,-,N/A,,Clear,120,2013-05-26 04:53:00
11:53 PM,69.1,54.0,58,29.76,10.0,SE,20.7,-,N/A,,Clear,140,2013-05-26 05:53:00